TimeCST,TemperatureF,Dew PointF,Humidity,Sea Level PressureIn,VisibilityMPH,Wind Direction,Wind SpeedMPH,Gust SpeedMPH,PrecipitationIn,Events,Conditions,WindDirDegrees,DateUTC
12:53 AM,1.9,-2.9,80,30.28,10.0,SW,5.8,-,N/A,,Clear,230,2012-12-10 06:53:00
1:53 AM,-2.0,-7.1,79,30.22,10.0,South,5.8,-,N/A,,Clear,190,2012-12-10 07:53:00
2:53 AM,-2.9,-8.0,79,30.21,10.0,SW,10.4,-,N/A,,Clear,220,2012-12-10 08:53:00
3:53 AM,1.0,-5.1,75,30.16,10.0,SSW,6.9,-,N/A,,Clear,200,2012-12-10 09:53:00
4:53 AM,3.0,-4.0,73,30.12,10.0,SSW,9.2,-,N/A,,Clear,200,2012-12-10 10:53:00
5:53 AM,-0.0,-6.0,76,30.08,10.0,South,11.5,-,N/A,,Clear,170,2012-12-10 11:53:00
6:53 AM,3.9,-2.9,73,30.04,10.0,SSE,8.1,-,N/A,,Clear,160,2012-12-10 12:53:00
7:53 AM,3.0,-4.0,73,30.03,10.0,SE,4.6,-,N/A,,Clear,140,2012-12-10 13:53:00
8:53 AM,7.0,-2.0,67,30.01,10.0,SSW,6.9,-,N/A,,Clear,210,2012-12-10 14:53:00
10:53 AM,12.0,1.9,64,29.99,10.0,SW,8.1,-,N/A,,Clear,220,2012-12-10 16:53:00
11:53 AM,16.0,5.0,62,29.97,10.0,SW,8.1,-,N/A,,Clear,230,2012-12-10 17:53:00
12:53 PM,19.0,8.1,62,29.94,10.0,SW,6.9,-,N/A,,Scattered Clouds,230,2012-12-10 18:53:00
1:53 PM,24.1,12.0,60,29.91,10.0,SW,6.9,-,N/A,,Overcast,230,2012-12-10 19:53:00
2:53 PM,28.9,18.0,64,29.89,10.0,WSW,8.1,-,N/A,,Overcast,240,2012-12-10 20:53:00
3:17 PM,30.2,19.4,64,29.78,10.0,West,8.1,-,N/A,,Overcast,260,2012-12-10 21:17:00
3:45 PM,32.0,24.8,75,29.79,10.0,WNW,16.1,-,N/A,,Overcast,290,2012-12-10 21:45:00
3:53 PM,32.0,24.1,73,29.89,10.0,WNW,16.1,-,N/A,,Overcast,290,2012-12-10 21:53:00
4:53 PM,32.0,24.1,73,29.89,10.0,West,12.7,-,N/A,,Overcast,280,2012-12-10 22:53:00
5:53 PM,32.0,24.1,73,29.90,10.0,West,12.7,-,N/A,,Overcast,280,2012-12-10 23:53:00
6:53 PM,33.1,25.0,72,29.91,10.0,WNW,17.3,-,0.00,,Overcast,290,2012-12-11 00:53:00
7:53 PM,32.0,25.0,75,29.93,10.0,NW,16.1,-,N/A,,Overcast,310,2012-12-11 01:53:00
8:53 PM,28.0,19.9,72,29.96,10.0,NW,16.1,-,0.00,,Mostly Cloudy,310,2012-12-11 02:53:00
9:53 PM,28.9,21.0,72,29.96,10.0,WNW,15.0,-,N/A,,Overcast,290,2012-12-11 03:53:00
10:53 PM,28.0,19.9,72,29.96,10.0,WNW,13.8,-,N/A,,Mostly Cloudy,290,2012-12-11 04:53:00
11:53 PM,24.1,18.0,77,29.96,10.0,West,13.8,-,N/A,,Mostly Cloudy,260,2012-12-11 05:53:00